QPF
0.00 0.00 0.00 0.00 0.00 0.00 0.00 0.00 0.00 0.00 0.00 0.00 0.00 0.00 0.00 0.00 0.00 0.00 0.00 0.00 0.00 0.00 0.00 0.00 0.00 0.00 0.00 0.00 0.00 0.00 0.00 0.00 0.00 0.00 0.00 0.00 0.00 0.00 0.00 0.00 0.00 0.00 0.00 0.00
0.00 0.00 0.00 0.00 0.00 0.00 0.00 0.00 0.00 0.00 0.00 0.00 0.00 0.00 0.00 0.00 0.00 0.00 0.00 0.00 0.00 0.00 0.00 0.00 0.00 0.00 0.00 0.00 0.00 0.00 0.00 0.00 0.00 0.00 0.00 0.00 0.00 0.00 0.00 0.00 0.00 0.00 0.00 0.00
0.00 0.00 0.00 0.00 0.00 0.00 0.00 0.00 0.00 0.00 0.00 0.00 0.00 0.00 0.00 0.00 0.00 0.00 0.00 0.00 0.00 0.00 0.00 0.00 0.00 0.00 0.00 0.00 0.00 0.00 0.00 0.00 0.00 0.00 0.00 0.00 0.00 0.00 0.00 0.00 0.00 0.00 0.00 0.00
0.00 0.00 0.00 0.00 0.00 0.00 0.00 0.00 0.00 0.00 0.00 0.00 0.00 0.00 0.00 0.00 0.00 0.00 0.00 0.00 0.00 0.00 0.00 0.00 0.00 0.00 0.00 0.00 0.00 0.00 0.00 0.00 0.00 0.00 0.00 0.00 0.00 0.00 0.00 0.00 0.00 0.00 0.00 0.00
0.00 0.00 0.00 0.00 0.00 0.00 0.00 0.00 0.00 0.00 0.00 0.00 0.00 0.00 0.00 0.00 0.00 0.00 0.00 0.00 0.00 0.00 0.00 0.00 0.00 0.00 0.00 0.00 0.00 0.00 0.00 0.00 0.00 0.00 0.00 0.00 0.00 0.00 0.00 0.00 0.00 0.00 0.00 0.00
0.00 0.00 0.00 0.00 0.00 0.00 0.00 0.00 0.00 0.00 0.00 0.00 0.00 0.00 0.00 0.00 0.00 0.00 0.00 0.00 0.00 0.00 0.00 0.00 0.00 0.00 0.00 0.00 0.00 0.00 0.00 0.00 0.00 0.00 0.00 0.00 0.00 0.00 0.00 0.00 0.00 0.00 0.00 0.00
0.00 0.00 0.00 0.00 0.00 0.00 0.00 0.00 0.00 0.00 0.00 0.00 0.00 0.00 0.00 0.00 0.00 0.01 0.00 0.00 0.00 0.00 0.00 0.00 0.00 0.00 0.00 0.00 0.00 0.00 0.00 0.00 0.00 0.00 0.00 0.00 0.00 0.00 0.00 0.00 0.00 0.00 0.00 0.00
0.00 0.00 0.00 0.00 0.00 0.00 0.00 0.00 0.00 0.00 0.00 0.00 0.00 0.00 0.00 0.00 0.00 0.00 0.00 0.00 0.00 0.00 0.00 0.00 0.00 0.00 0.00 0.00 0.00 0.00 0.00 0.00 0.00 0.00 0.00 0.00 0.00 0.00 0.00 0.00 0.00 0.00 0.00 0.00
0.00 0.00 0.00 0.00 0.00 0.00 0.00 0.00 0.00 0.00 0.00 0.00 0.00 0.00 0.00 0.00 0.00 0.00 0.00 0.00 0.00 0.00 0.00 0.00 0.00 0.00 0.00 0.00 0.00 0.00 0.00 0.00 0.00 0.00 0.00 0.00 0.00 0.00 0.00 0.00 0.00 0.00 0.00 0.00
0.00 0.00 0.00 0.00 0.00 0.00 0.00 0.00 0.00 0.00 0.00 0.00 0.00 0.00 0.00 0.00 0.03 0.01 0.00 0.00 0.00 0.00 0.00 0.00 0.00 0.00 0.00 0.00 0.00 0.00 0.00 0.00 0.00 0.00 0.00 0.00 0.00 0.00 0.00 0.00 0.00 0.00 0.00 0.00
0.00 0.00 0.00 0.00 0.00 0.00 0.00 0.00 0.00 0.00 0.00 0.00 0.00 0.00 0.01 0.02 0.00 0.00 0.00 0.00 0.00 0.00 0.00 0.00 0.00 0.00 0.00 0.00 0.00 0.00 0.00 0.00 0.00 0.00 0.00 0.00 0.00 0.00 0.00 0.00 0.00 0.00 0.00 0.00
0.00 0.00 0.00 0.00 0.00 0.00 0.00 0.00 0.00 0.00 0.00 0.00 0.00 0.00 0.00 0.00 0.00 0.00 0.00 0.00 0.00 0.00 0.00 0.00 0.00 0.00 0.00 0.00 0.00 0.00 0.00 0.00 0.00 0.00 0.00 0.00 0.00 0.00 0.00 0.00 0.00 0.00 0.00 0.00
0.00 0.00 0.00 0.00 0.00 0.00 0.00 0.00 0.00 0.00 0.00 0.00 0.00 0.00 0.00 0.00 0.00 0.00 0.00 0.00 0.00 0.00 0.00 0.00 0.00 0.00 0.00 0.00 0.00 0.00 0.00 0.00 0.00 0.00 0.00 0.00 0.00 0.00 0.00 0.00 0.00 0.00 0.00 0.00
0.00 0.00 0.00 0.00 0.00 0.00 0.00 0.00 0.00 0.00 0.00 0.00 0.00 0.00 0.00 0.00 0.00 0.00 0.00 0.00 0.00 0.00 0.00 0.00 0.00 0.00 0.00 0.00 0.00 0.00 0.00 0.00 0.00 0.00 0.00 0.00 0.00 0.00 0.00 0.00 0.00 0.00 0.00 0.00
0.00 0.00 0.00 0.00 0.00 0.00 0.00 0.00 0.00 0.00 0.00 0.00 0.00 0.00 0.00 0.00 0.00 0.00 0.00 0.00 0.00 0.00 0.00 0.00 0.00 0.00 0.00 0.00 0.00 0.00 0.00 0.00 0.00 0.00 0.00 0.00 0.00 0.00 0.00 0.00 0.00 0.00 0.00 0.00
0.00 0.00 0.00 0.00 0.00 0.00 0.00 0.00 0.00 0.00 0.00 0.00 0.00 0.00 0.00 0.00 0.00 0.00 0.00 0.00 0.00 0.00 0.00 0.00 0.00 0.00 0.00 0.00 0.00 0.00 0.00 0.00 0.00 0.00 0.00 0.00 0.00 0.00 0.00 0.00 0.00 0.00 0.00 0.00
0.00 0.00 0.00 0.00 0.00 0.00 0.00 0.00 0.00 0.00 0.00 0.00 0.00 0.00 0.00 0.00 0.00 0.00 0.00 0.00 0.00 0.00 0.00 0.00 0.00 0.00 0.00 0.00 0.00 0.00 0.00 0.00 0.00 0.00 0.00 0.00 0.00 0.00 0.00 0.00 0.00 0.00 0.00 0.00
0.00 0.00 0.00 0.00 0.00 0.00 0.00 0.00 0.00 0.00 0.00 0.00 0.00 0.00 0.00 0.00 0.00 0.00 0.00 0.00 0.00 0.00 0.00 0.00 0.00 0.00 0.00 0.00 0.00 0.00 0.00 0.00 0.00 0.00 0.00 0.00 0.00 0.00 0.00 0.00 0.00 0.00 0.00 0.00
0.00 0.00 0.00 0.00 0.00 0.00 0.00 0.00 0.00 0.00 0.00 0.00 0.00 0.00 0.00 0.00 0.00 0.00 0.00 0.00 0.00 0.00 0.00 0.00 0.00 0.00 0.00 0.00 0.00 0.00 0.00 0.00 0.00 0.00 0.00 0.00 0.00 0.00 0.00 0.00 0.00 0.00 0.00 0.00
0.00 0.00 0.00 0.00 0.00 0.00 0.00 0.00 0.00 0.00 0.00 0.00 0.00 0.00 0.00 0.00 0.00 0.00 0.00 0.00 0.00 0.00 0.00 0.00 0.00 0.00 0.00 0.00 0.00 0.00 0.00 0.00 0.00 0.00 0.00 0.00 0.00 0.00 0.00 0.00 0.00 0.00 0.00 0.00
0.00 0.00 0.00 0.00 0.00 0.00 0.00 0.00 0.00 0.00 0.00 0.00 0.00 0.00 0.00 0.00 0.00 0.00 0.00 0.00 0.00 0.00 0.00 0.00 0.00 0.00 0.00 0.00 0.00 0.00 0.00 0.00 0.00 0.00 0.00 0.00 0.00 0.00 0.00 0.00 0.00 0.00 0.00 0.00
0.00 0.00 0.00 0.00 0.00 0.00 0.00 0.00 0.00 0.00 0.00 0.00 0.00 0.00 0.00 0.00 0.00 0.00 0.00 0.00 0.00 0.00 0.00 0.00 0.00 0.00 0.00 0.00 0.00 0.00 0.00 0.00 0.00 0.00 0.00 0.00 0.00 0.00 0.00 0.00 0.00 0.00 0.00 0.00
0.00 0.00 0.00 0.00 0.00 0.00 0.00 0.00 0.00 0.00 0.00 0.00 0.00 0.00 0.00 0.00 0.00 0.00 0.00 0.00 0.00 0.00 0.00 0.00 0.00 0.00 0.00 0.00 0.00 0.00 0.00 0.00 0.00 0.00 0.00 0.00 0.00 0.00 0.00 0.00 0.00 0.00 0.00 0.00
0.00 0.00 0.00 0.00 0.00 0.00 0.00 0.00 0.00 0.00 0.00 0.00 0.00 0.00 0.00 0.00 0.00 0.00 0.00 0.00 0.00 0.00 0.00 0.00 0.00 0.00 0.00 0.00 0.00 0.00 0.00 0.00 0.00 0.00 0.00 0.00 0.00 0.00 0.00 0.00 0.00 0.00 0.00 0.00
0.00 0.00 0.00 0.00 0.00 0.00 0.00 0.00 0.00 0.00 0.00 0.00 0.00 0.00 0.00 0.00 0.00 0.00 0.00 0.00 0.00 0.00 0.00 0.00 0.00 0.00 0.00 0.00 0.00 0.00 0.00 0.00 0.00 0.00 0.00 0.00 0.00 0.00 0.00 0.00 0.00 0.00 0.00 0.00
0.00 0.00 0.00 0.00 0.00 0.00 0.00 0.00 0.00 0.00 0.00 0.00 0.00 0.00 0.00 0.00 0.00 0.00 0.00 0.00 0.00 0.00 0.00 0.00 0.00 0.00 0.00 0.00 0.00 0.00 0.00 0.00 0.00 0.00 0.00 0.00 0.00 0.00 0.00 0.00 0.00 0.00 0.00 0.00
0.00 0.00 0.00 0.00 0.00 0.00 0.00 0.00 0.00 0.00 0.00 0.00 0.00 0.00 0.00 0.00 0.00 0.00 0.00 0.00 0.00 0.00 0.00 0.00 0.00 0.00 0.00 0.00 0.00 0.00 0.00 0.00 0.00 0.00 0.00 0.00 0.00 0.00 0.00 0.00 0.00 0.00 0.00 0.00
MSLP
1011.86 1011.28 1010.65 1010.24 1010.16 1010.13 1010.59 1011.20 1011.97 1012.97 1013.07 1013.21 1013.66 1014.41 1015.72 1017.01 1018.50 1019.91 1021.16 1022.21 1023.11 1024.17 1024.98 1025.52 1026.29 1027.21 1027.90 1028.40 1028.66 1028.97 1029.43 1029.57 1029.98 1029.82 1029.77 1029.65 1029.39 1029.19 1028.72 1028.60 1028.18 1028.05 1028.01 1028.02
1012.96 1012.11 1011.78 1011.32 1011.07 1011.08 1011.43 1011.98 1012.14 1013.09 1014.29 1014.79 1015.02 1015.53 1016.51 1017.15 1017.80 1018.67 1019.98 1021.60 1023.14 1024.02 1024.82 1025.48 1026.30 1027.19 1027.95 1028.62 1028.95 1028.96 1029.40 1029.68 1030.05 1029.96 1029.98 1029.92 1029.56 1029.33 1029.01 1028.78 1028.43 1028.33 1028.25 1028.30
1014.07 1013.38 1012.92 1012.64 1012.34 1012.29 1012.68 1012.79 1012.86 1013.84 1015.39 1015.80 1016.61 1017.09 1017.67 1018.50 1019.48 1020.41 1021.24 1022.16 1023.50 1024.02 1024.76 1025.60 1026.17 1027.28 1028.18 1028.83 1029.13 1029.46 1029.57 1030.04 1030.25 1030.30 1030.01 1030.20 1029.84 1029.47 1029.35 1028.97 1028.65 1028.67 1028.47 1028.45
1015.28 1014.85 1014.86 1013.73 1013.08 1013.10 1013.87 1014.34 1014.64 1015.27 1016.08 1016.66 1017.49 1018.04 1018.35 1018.75 1019.70 1020.86 1021.74 1022.73 1023.75 1024.42 1025.39 1026.35 1027.00 1027.63 1028.30 1028.74 1029.38 1029.96 1030.27 1030.20 1030.44 1030.47 1030.29 1030.47 1030.23 1029.84 1029.67 1029.30 1028.99 1028.87 1028.74 1028.81
1016.17 1016.30 1015.52 1014.90 1014.23 1014.06 1014.30 1016.03 1016.06 1016.94 1017.78 1018.28 1018.67 1019.03 1020.03 1019.83 1020.12 1021.12 1022.17 1023.25 1024.26 1024.96 1025.80 1026.78 1027.56 1028.05 1028.60 1029.08 1029.41 1030.20 1030.69 1030.67 1030.67 1030.57 1030.87 1030.80 1030.49 1030.46 1030.29 1029.71 1029.60 1029.38 1029.36 1029.36
1016.97 1017.45 1016.63 1016.11 1015.09 1014.38 1014.48 1016.75 1017.39 1017.58 1018.51 1019.18 1019.44 1020.63 1021.72 1021.28 1021.42 1022.02 1023.19 1023.92 1024.71 1025.65 1026.60 1027.06 1028.15 1028.48 1029.19 1029.80 1030.11 1030.69 1030.84 1031.13 1031.20 1030.98 1031.01 1031.18 1031.11 1031.19 1030.96 1030.51 1030.47 1030.13 1029.98 1029.83
1016.71 1017.07 1016.71 1016.27 1015.46 1014.42 1015.80 1018.20 1018.11 1018.60 1019.10 1019.49 1020.26 1020.52 1021.38 1021.79 1022.51 1022.91 1023.97 1024.60 1025.39 1026.13 1027.16 1027.69 1028.49 1029.10 1029.67 1030.19 1030.60 1030.57 1031.19 1031.39 1031.29 1031.53 1031.56 1031.63 1031.88 1032.07 1031.58 1031.43 1031.20 1030.87 1030.70 1030.51
1016.31 1016.99 1016.98 1016.12 1015.97 1016.64 1017.82 1018.11 1018.46 1019.11 1019.73 1020.16 1020.58 1021.30 1021.97 1022.61 1023.90 1024.33 1024.78 1025.70 1026.23 1027.14 1027.86 1028.34 1029.07 1029.64 1030.32 1030.93 1031.13 1030.92 1031.31 1031.35 1031.64 1032.03 1032.17 1032.28 1032.81 1032.67 1032.22 1032.33 1032.03 1031.70 1031.35 1031.05
1016.33 1016.89 1016.59 1016.61 1016.80 1016.98 1017.29 1017.96 1018.59 1019.40 1020.24 1020.68 1021.67 1022.48 1023.26 1023.79 1024.60 1025.21 1025.75 1026.66 1027.48 1028.16 1028.75 1029.29 1029.68 1030.19 1031.15 1031.48 1031.48 1031.64 1031.75 1031.80 1031.93 1032.16 1032.56 1032.93 1033.40 1033.06 1032.89 1033.01 1032.69 1032.39 1032.02 1031.61
1016.21 1016.51 1016.97 1017.24 1017.46 1017.66 1017.94 1018.35 1018.84 1019.49 1020.41 1021.09 1021.87 1022.67 1023.62 1024.36 1025.46 1025.90 1026.55 1027.47 1028.30 1029.14 1029.95 1030.58 1030.79 1031.08 1031.65 1031.81 1031.71 1031.97 1032.07 1032.11 1032.27 1032.48 1032.95 1033.46 1033.64 1033.38 1033.31 1033.55 1033.28 1032.85 1032.47 1032.02
1016.47 1016.93 1017.54 1018.00 1018.10 1018.22 1018.46 1018.75 1019.38 1020.00 1020.43 1021.11 1021.73 1023.05 1024.16 1025.31 1025.73 1026.55 1027.47 1028.33 1029.09 1030.05 1030.84 1031.36 1031.48 1031.81 1032.30 1032.21 1032.18 1032.17 1032.12 1032.30 1032.30 1032.67 1033.11 1033.78 1033.85 1033.63 1033.51 1033.71 1033.43 1032.98 1032.65 1032.29
1016.79 1017.09 1017.82 1018.91 1018.55 1018.39 1019.03 1019.56 1019.97 1020.43 1021.20 1021.96 1022.57 1023.40 1024.20 1025.27 1026.49 1027.11 1027.96 1029.02 1029.97 1030.97 1031.66 1032.05 1032.14 1031.92 1032.18 1032.16 1032.21 1032.14 1032.33 1032.67 1032.90 1033.23 1033.51 1033.72 1033.83 1033.70 1033.52 1033.53 1033.30 1032.87 1032.37 1032.20
1016.72 1017.49 1018.10 1018.89 1019.22 1019.40 1019.78 1020.28 1020.79 1021.43 1022.09 1022.83 1023.39 1024.21 1025.09 1026.43 1027.08 1027.89 1028.99 1029.97 1030.82 1031.47 1032.21 1032.35 1032.41 1032.46 1032.28 1032.18 1032.01 1032.44 1032.73 1033.06 1033.11 1033.57 1033.76 1033.75 1033.72 1033.79 1033.67 1033.77 1033.38 1033.08 1032.61 1032.20
1016.82 1017.60 1018.85 1019.30 1020.25 1020.50 1020.77 1021.21 1021.64 1022.29 1022.89 1023.56 1024.31 1025.17 1026.18 1027.24 1028.18 1029.02 1029.92 1030.60 1031.23 1031.92 1032.64 1032.52 1032.58 1032.45 1032.13 1032.16 1032.35 1032.61 1032.83 1033.29 1033.61 1034.01 1034.07 1033.88 1033.88 1033.87 1033.83 1033.88 1033.86 1033.66 1033.08 1032.77
1017.48 1017.54 1018.62 1019.92 1020.74 1021.44 1021.80 1022.28 1023.05 1023.70 1024.20 1024.97 1025.57 1026.60 1027.35 1028.44 1029.44 1030.37 1030.89 1031.35 1032.03 1032.56 1032.85 1032.87 1032.78 1032.45 1032.27 1032.34 1032.77 1033.13 1033.32 1033.58 1033.85 1034.11 1034.12 1034.04 1034.06 1033.94 1034.01 1034.00 1034.10 1034.09 1033.70 1033.33
1018.61 1019.29 1020.02 1020.82 1021.72 1022.33 1022.74 1023.42 1024.13 1025.03 1025.82 1026.63 1027.26 1028.08 1028.89 1029.65 1030.41 1031.06 1031.63 1032.09 1032.47 1032.80 1032.90 1033.07 1032.98 1032.72 1032.32 1032.77 1033.07 1033.37 1033.67 1033.79 1034.12 1034.35 1034.40 1034.34 1034.39 1034.29 1034.32 1034.42 1034.43 1034.43 1034.29 1034.14
1019.45 1020.65 1021.22 1021.84 1022.44 1022.98 1023.46 1024.00 1024.98 1026.00 1026.99 1027.75 1028.61 1029.33 1029.91 1030.68 1031.22 1031.90 1032.35 1032.55 1032.70 1032.96 1032.98 1033.07 1033.33 1033.23 1032.94 1032.91 1033.23 1033.65 1033.95 1034.09 1034.40 1034.50 1034.68 1034.72 1034.78 1034.73 1034.60 1034.81 1034.91 1034.83 1034.83 1034.81
1019.76 1020.54 1021.17 1021.88 1022.79 1023.47 1024.28 1025.08 1025.94 1026.86 1027.76 1028.65 1029.40 1030.15 1030.82 1031.30 1031.86 1032.44 1032.68 1032.81 1033.06 1033.26 1033.21 1033.34 1033.33 1033.23 1033.08 1033.14 1033.47 1033.77 1034.02 1034.39 1034.64 1034.87 1035.05 1035.11 1035.26 1035.11 1035.01 1035.09 1035.25 1035.30 1035.27 1035.43
1021.47 1021.97 1022.36 1022.94 1023.59 1024.42 1025.36 1026.26 1027.06 1027.88 1028.75 1029.41 1030.13 1030.99 1031.35 1031.73 1032.20 1032.66 1032.92 1033.16 1033.28 1033.40 1033.55 1033.36 1033.18 1033.28 1033.43 1033.59 1033.78 1033.83 1034.19 1034.56 1034.88 1035.17 1035.36 1035.56 1035.63 1035.60 1035.56 1035.57 1035.66 1035.68 1035.64 1035.67
1023.60 1023.93 1024.29 1024.83 1025.33 1025.73 1026.52 1027.40 1028.07 1028.82 1029.49 1029.98 1030.69 1031.35 1032.02 1032.23 1032.50 1032.81 1033.03 1033.21 1033.10 1033.07 1033.22 1033.40 1033.54 1033.63 1033.61 1033.47 1033.81 1034.13 1034.34 1034.68 1035.09 1035.37 1035.67 1035.89 1036.01 1036.00 1036.06 1036.05 1036.06 1036.08 1036.06 1036.08
1025.13 1025.47 1025.84 1026.24 1026.78 1027.25 1027.59 1028.22 1028.75 1029.41 1030.09 1030.52 1031.02 1031.76 1032.14 1032.45 1032.70 1032.92 1033.18 1033.23 1032.96 1032.97 1032.89 1033.56 1033.69 1033.77 1033.76 1033.74 1033.89 1034.21 1034.54 1034.83 1035.22 1035.53 1035.91 1036.29 1036.36 1036.35 1036.27 1036.32 1036.37 1036.41 1036.44 1036.47
1026.08 1026.43 1026.78 1027.16 1027.46 1028.04 1028.54 1028.78 1029.30 1029.87 1030.48 1031.00 1031.45 1031.89 1032.32 1032.67 1032.83 1033.00 1032.95 1033.01 1032.75 1032.85 1033.15 1033.48 1033.56 1033.59 1033.59 1033.84 1033.87 1034.42 1034.66 1034.97 1035.34 1035.71 1036.04 1036.34 1036.49 1036.59 1036.58 1036.53 1036.56 1036.61 1036.69 1036.76
1026.37 1026.74 1027.19 1027.65 1027.92 1028.40 1029.00 1029.41 1029.75 1030.22 1030.80 1031.23 1031.64 1032.04 1032.16 1032.26 1032.42 1032.72 1032.69 1032.64 1032.96 1033.05 1033.24 1033.34 1033.75 1034.06 1034.21 1034.08 1034.24 1034.72 1034.94 1035.24 1035.58 1035.88 1036.21 1036.44 1036.55 1036.61 1036.65 1036.67 1036.69 1036.74 1036.84 1036.91
1026.37 1026.90 1027.46 1028.01 1028.34 1028.81 1029.32 1029.75 1030.06 1030.62 1031.04 1031.38 1031.70 1031.95 1031.87 1031.96 1032.16 1032.03 1032.13 1032.35 1032.63 1033.33 1033.69 1033.75 1034.09 1034.25 1034.28 1034.55 1034.71 1035.13 1035.41 1035.59 1035.77 1035.99 1036.27 1036.49 1036.64 1036.69 1036.67 1036.70 1036.72 1036.43 1036.40 1036.41
1026.46 1027.05 1027.62 1028.07 1028.52 1029.06 1029.33 1029.76 1030.26 1030.75 1031.11 1031.43 1031.64 1031.66 1031.58 1031.47 1031.81 1031.99 1032.10 1032.54 1033.00 1033.51 1033.92 1034.10 1034.37 1034.61 1034.81 1034.96 1035.14 1035.62 1035.68 1035.67 1035.68 1035.56 1036.25 1036.43 1036.60 1036.62 1036.18 1036.10 1036.15 1036.07 1036.08 1036.11
1026.67 1027.11 1027.68 1028.10 1028.56 1028.86 1029.21 1029.69 1030.20 1030.63 1031.08 1031.48 1031.65 1031.70 1031.74 1031.75 1031.98 1032.13 1032.42 1032.71 1033.11 1033.59 1034.15 1034.57 1034.81 1034.97 1035.09 1035.06 1035.21 1035.33 1035.35 1035.22 1035.44 1035.61 1035.72 1035.69 1035.77 1035.97 1036.00 1035.81 1035.78 1035.69 1035.70 1035.66
1026.88 1027.27 1027.93 1028.46 1028.66 1028.92 1029.26 1029.66 1030.22 1030.82 1031.14 1031.44 1031.71 1031.95 1032.03 1032.11 1032.31 1032.49 1032.63 1032.97 1033.40 1033.69 1033.47 1034.06 1034.56 1034.82 1034.99 1035.10 1035.19 1035.19 1035.25 1035.26 1035.29 1035.36 1035.48 1035.40 1035.32 1035.46 1035.66 1035.57 1035.37 1035.26 1035.18 1035.15
Thickness
5660 5668 5674 5674 5672 5672 5666 5661 5645 5634 5635 5641 5640 5633 5621 5609 5594 5580 5567 5552 5540 5523 5509 5499 5487 5471 5457 5444 5433 5423 5410 5400 5386 5378 5366 5355 5347 5339 5332 5321 5310 5299 5287 5276
5641 5659 5656 5655 5657 5655 5655 5648 5649 5634 5619 5627 5627 5621 5611 5604 5596 5586 5572 5552 5534 5518 5507 5495 5480 5464 5450 5436 5426 5417 5405 5394 5380 5370 5358 5348 5342 5336 5328 5315 5306 5293 5283 5271
5629 5644 5639 5622 5637 5638 5637 5635 5636 5621 5613 5617 5608 5605 5598 5588 5578 5567 5554 5542 5523 5514 5501 5487 5475 5458 5441 5427 5417 5406 5398 5385 5372 5361 5354 5343 5338 5333 5320 5311 5301 5288 5279 5269
5612 5620 5582 5625 5645 5638 5620 5618 5617 5613 5607 5603 5593 5587 5583 5578 5565 5552 5541 5527 5514 5503 5486 5471 5460 5448 5434 5423 5409 5395 5386 5377 5366 5355 5349 5338 5333 5327 5314 5307 5296 5286 5275 5266
5588 5595 5615 5617 5626 5621 5614 5594 5605 5596 5588 5581 5576 5571 5560 5561 5553 5541 5528 5514 5499 5487 5475 5462 5449 5438 5426 5416 5406 5390 5377 5369 5360 5351 5341 5334 5330 5319 5309 5302 5290 5281 5272 5263
5579 5578 5588 5606 5618 5624 5623 5575 5591 5589 5576 5567 5567 5543 5533 5541 5536 5527 5511 5500 5488 5474 5462 5455 5438 5428 5415 5404 5396 5381 5372 5361 5351 5346 5339 5331 5324 5313 5305 5296 5285 5276 5269 5262
5587 5574 5594 5608 5613 5623 5581 5572 5578 5570 5564 5563 5552 5545 5533 5529 5519 5511 5498 5488 5476 5466 5453 5443 5429 5418 5407 5397 5387 5379 5366 5355 5349 5341 5335 5328 5317 5306 5300 5290 5279 5271 5265 5260
5594 5579 5566 5609 5607 5587 5579 5578 5572 5565 5553 5541 5536 5533 5525 5518 5502 5493 5484 5473 5464 5452 5441 5432 5419 5408 5397 5386 5377 5373 5362 5354 5345 5336 5330 5322 5308 5302 5296 5283 5274 5266 5262 5258
5595 5586 5601 5604 5595 5594 5588 5578 5569 5555 5544 5539 5527 5518 5508 5499 5490 5478 5471 5458 5448 5438 5429 5418 5409 5400 5385 5376 5370 5362 5354 5346 5341 5335 5326 5316 5303 5299 5292 5279 5272 5265 5261 5256
5595 5600 5591 5587 5583 5579 5575 5569 5561 5553 5541 5531 5522 5511 5499 5489 5473 5466 5458 5447 5436 5424 5412 5401 5395 5388 5376 5368 5364 5354 5348 5343 5337 5331 5321 5310 5302 5298 5290 5278 5270 5264 5260 5257
5594 5594 5584 5578 5576 5574 5568 5563 5551 5542 5535 5526 5516 5501 5488 5473 5468 5457 5445 5434 5423 5411 5399 5390 5385 5376 5365 5361 5356 5352 5347 5340 5337 5328 5319 5307 5300 5296 5291 5281 5273 5264 5260 5258
5574 5587 5576 5566 5569 5570 5558 5549 5541 5532 5522 5512 5504 5495 5485 5472 5459 5449 5436 5421 5410 5397 5386 5379 5375 5372 5364 5359 5354 5350 5344 5336 5330 5321 5314 5308 5302 5298 5292 5284 5276 5269 5265 5262
5583 5577 5570 5561 5557 5553 5546 5539 5531 5520 5510 5501 5493 5483 5474 5458 5448 5437 5423 5410 5399 5389 5377 5373 5369 5363 5359 5355 5353 5344 5338 5332 5327 5317 5313 5309 5304 5299 5291 5285 5279 5273 5267 5264
5582 5573 5560 5557 5541 5538 5532 5525 5519 5512 5504 5494 5484 5472 5461 5448 5433 5422 5410 5401 5391 5380 5370 5368 5363 5360 5356 5351 5347 5340 5336 5328 5320 5312 5309 5305 5300 5297 5292 5286 5278 5273 5269 5264
5571 5570 5559 5544 5534 5526 5518 5510 5502 5494 5489 5478 5467 5453 5443 5429 5418 5406 5398 5390 5381 5372 5365 5361 5359 5355 5351 5346 5340 5335 5329 5324 5317 5312 5308 5305 5301 5299 5294 5289 5283 5276 5271 5266
5555 5548 5539 5529 5520 5515 5508 5500 5491 5478 5465 5455 5446 5436 5426 5416 5405 5395 5387 5380 5374 5367 5362 5356 5353 5349 5345 5340 5335 5330 5324 5321 5314 5309 5305 5303 5299 5297 5293 5287 5283 5277 5271 5266
5540 5530 5524 5517 5511 5507 5502 5493 5480 5466 5453 5442 5432 5423 5414 5404 5395 5386 5378 5373 5368 5362 5358 5353 5345 5342 5338 5335 5330 5324 5320 5317 5311 5308 5303 5300 5296 5295 5292 5286 5281 5278 5273 5268
5539 5531 5524 5516 5505 5497 5488 5477 5464 5452 5442 5432 5422 5411 5403 5396 5389 5379 5372 5369 5360 5353 5351 5346 5342 5336 5332 5330 5325 5321 5317 5312 5308 5304 5300 5297 5293 5293 5291 5286 5282 5278 5274 5271
5515 5510 5508 5503 5494 5482 5468 5458 5449 5441 5431 5420 5411 5401 5394 5389 5382 5372 5366 5357 5349 5347 5341 5339 5335 5329 5326 5322 5320 5317 5313 5308 5305 5301 5298 5293 5291 5290 5287 5284 5280 5277 5275 5272
5488 5482 5478 5471 5467 5462 5453 5444 5437 5429 5418 5412 5404 5395 5388 5380 5374 5366 5360 5354 5351 5345 5338 5332 5327 5322 5319 5318 5315 5312 5309 5305 5301 5298 5293 5291 5289 5286 5285 5282 5280 5277 5273 5271
5469 5465 5461 5457 5451 5445 5440 5433 5427 5420 5410 5401 5397 5388 5382 5375 5369 5363 5357 5352 5348 5341 5334 5327 5321 5317 5314 5313 5310 5307 5305 5301 5298 5295 5291 5287 5285 5285 5284 5282 5279 5276 5274 5272
5456 5452 5447 5444 5440 5434 5428 5424 5418 5411 5404 5398 5389 5383 5376 5370 5362 5359 5353 5350 5345 5337 5328 5320 5316 5313 5312 5310 5307 5303 5302 5299 5296 5292 5289 5287 5285 5283 5282 5281 5279 5277 5275 5273
5450 5445 5439 5433 5431 5425 5418 5413 5408 5404 5395 5388 5383 5379 5377 5372 5366 5359 5352 5350 5341 5333 5324 5316 5312 5309 5307 5305 5303 5299 5297 5294 5291 5289 5286 5285 5285 5284 5283 5281 5280 5278 5276 5275
5444 5438 5433 5426 5422 5416 5411 5405 5402 5396 5390 5387 5382 5377 5375 5369 5363 5361 5355 5348 5340 5330 5320 5313 5307 5304 5301 5299 5298 5295 5292 5290 5288 5286 5285 5285 5284 5284 5283 5282 5281 5280 5279 5278
5436 5429 5425 5420 5415 5409 5406 5403 5397 5392 5388 5383 5378 5375 5373 5371 5362 5356 5351 5344 5336 5327 5317 5309 5302 5298 5296 5294 5292 5291 5289 5287 5286 5284 5283 5283 5282 5282 5282 5283 5282 5282 5281 5279
5429 5424 5419 5413 5408 5406 5404 5400 5395 5390 5384 5378 5374 5371 5368 5364 5357 5352 5345 5339 5331 5323 5315 5307 5301 5296 5292 5290 5288 5287 5285 5284 5283 5282 5282 5281 5281 5281 5281 5281 5282 5282 5282 5281
5420 5415 5410 5405 5404 5404 5401 5397 5391 5384 5380 5374 5368 5365 5361 5356 5351 5345 5341 5334 5327 5319 5313 5305 5300 5294 5289 5286 5285 5283 5282 5281 5280 5279 5279 5279 5279 5279 5279 5279 5280 5280 5281 5281